Location: Edmonton
(53.5500°N, 113.5000°W)
Time: 11:05:32
(UTC-07:00)

Daily predictions for brighter satellites

Satellite Brightness Start Highest point End
(mag) Time Altitude Azimuth Time Altitude Azimuth Time Altitude Azimuth
USA 229 DEB 4.1 18:37:04 10° NW 18:44:08 73° SW 18:51:20 10° SE
USA 229 4.1 18:37:09 10° NW 18:44:14 74° SW 18:51:26 10° SE
Cosmos 468 Rocket 4.2 18:39:57 10° NNW 18:45:07 54° ENE 18:50:17 10° SE
Cosmos 1570 Rocket 4.4 18:40:06 10° NNW 18:45:21 73° WSW 18:50:34 10° SSE
Cosmos 1340 3.8 18:43:16 10° NNW 18:46:57 49° W 18:50:37 10° S
Cosmos 1025 Rocket 3.2 18:44:00 10° N 18:48:19 52° ENE 18:52:37 10° SSE
Meteor 1-23 Rocket 4.3 18:43:24 10° N 18:49:12 65° ENE 18:54:55 10° SSE
Cosmos 2227 Rocket 3.7 18:46:42 10° SE 18:49:36 14° E 18:52:32 10° ENE
Cosmos 2219 3.7 18:44:47 10° S 18:50:03 39° ESE 18:55:19 10° NE
Resurs 01 Rocket 2.2 18:47:02 10° SE 18:51:05 37° ENE 18:55:09 10° N
TSX-5 3.4 18:48:51 10° SW 18:52:04 88° NW 18:55:45 10° NE
Cosmos 1818 3.8 18:48:54 10° SW 18:54:22 79° NW 18:59:52 10° NE
Cosmos 1892 Rocket 4.2 18:50:22 10° N 18:54:23 35° ENE 18:58:24 10° SE
Resurs 1-3 4.2 18:52:30 10° SE 18:56:30 36° ENE 19:00:31 10° N
NOSS 3-1 (A) 4.0 18:49:28 10° NW 18:56:38 70° NE 19:04:43 10° ESE
FREGAT/IRIS 2.6 18:53:45 10° SSE 18:56:49 65° ENE 18:59:54 10° N
Gbstr 26 Del rocket 3.6 18:53:44 10° SW 18:57:11 32° SSE 19:00:29 10° E
SL-16 R/B 2.9 18:52:07 10° NNW 18:57:20 35° NE 19:02:32 10° ESE
Okean 1 Rocket 3.2 18:53:19 10° S 18:57:43 56° E 19:02:06 10° NNE
NOAA 12 4.2 18:53:01 10° SSE 18:58:22 88° WSW 19:03:44 10° NNW
USA 215 3.3 18:52:28 10° ENE 18:59:02 76° SSE 19:05:34 10° WSW
Cosmos 1633 2.6 18:55:46 10° S 18:59:27 87° E 19:03:09 10° NNE
Spot 2 Rocket 3.8 18:55:20 10° SE 19:00:10 47° ENE 19:05:03 10° N
BREEZE-M DEB (TANK) 4.4 18:58:06 10° WSW 19:01:00 40° SSE 19:12:11 10° ESE
ATLAS 2AS CENTAUR R/B 3.6 18:54:02 10° NW 19:01:53 47° NNE 19:09:17 11° E
Abrixas rocket 4.1 19:00:33 10° SSW 19:03:01 19° SSE 19:05:21 10° ESE
Okean 2 3.5 19:01:13 10° N 19:05:20 53° ENE 19:09:25 10° SSE
Cosmos 1602 3.8 19:03:19 10° SSW 19:07:14 85° W 19:11:13 10° N
Cosmos 1814 Rocket 4.0 19:03:29 10° NNW 19:08:38 62° ENE 19:13:43 10° SE
Cosmos 1536 2.8 19:06:51 10° S 19:10:46 62° E 19:14:43 10° NNE
SKYMED 2 3.8 19:07:48 10° NNE 19:12:09 75° WNW 19:16:29 10° SSW
Meteor 1-28 Rocket 3.3 19:08:56 10° NNE 19:12:46 81° WNW 19:16:36 10° SSW
NOSS 3-1 (C) 4.0 19:06:09 10° NW 19:13:24 90° NE 19:21:36 10° SE
Thor Agena Rocket 4.2 19:10:08 10° N 19:15:06 57° WNW 19:20:02 10° SW
Cosmos 2082 Rocket 4.4 19:12:11 10° WNW 19:16:08 19° NNW 19:20:06 10° NNE
HJ-1C 3.3 19:13:12 10° SSE 19:16:33 70° ENE 19:19:55 10° N
Envisat 4.0 19:12:44 10° ESE 19:16:58 27° ENE 19:21:12 10° N
USA 186 2.8 19:16:28 16° ESE 19:17:38 21° ENE 19:19:46 10° NNE
Cosmos 1850 Rocket 4.0 19:13:01 10° SSW 19:18:19 72° ESE 19:23:40 10° NNE
FENGYUN 3A 3.6 19:13:04 10° SSE 19:18:29 78° ENE 19:23:56 10° NNW
Helios 1B rocket 3.8 19:17:07 10° NE 19:19:59 18° E 19:22:50 10° SE
Cosmos 1939 Rocket 4.3 19:18:22 15° E 19:20:04 19° ENE 19:22:58 10° NNE
Cosmos 1980 3.7 19:14:25 10° NNW 19:20:07 84° ENE 19:25:47 10° SSE
Aureole 2 Rocket 3.1 19:17:20 10° N 19:20:29 31° NE 19:22:22 17° ESE
Cosmos 1833 4.5 19:15:23 10° SW 19:21:03 73° NW 19:26:42 10° NNE
Cosmos 1709 Rocket 4.4 19:16:14 10° SSW 19:22:23 69° WNW 19:28:32 10° N
NOSS 0 Rocket 4.1 19:17:07 10° NW 19:23:18 78° WSW 19:29:26 10° SSE
Cosmos 1544 Rocket 4.3 19:19:36 10° SSE 19:23:23 30° E 19:27:11 10° NNE
Cosmos 2333 Rocket 2.4 19:17:57 10° NW 19:23:44 79° WSW 19:29:29 10° SSE
BREEZE-M DEB (TANK) 4.4 19:22:48 10° WSW 19:24:34 16° SSW 19:27:15 10° SSE
Cosmos 2074 Rocket 4.0 19:18:36 10° S 19:24:46 64° E 19:31:01 10° NNE
CZ-4B DEB 3.9 19:24:09 19° E 19:25:17 24° ENE 19:27:52 10° N
Cosmos 1437 2.9 19:22:20 10° N 19:25:35 52° ENE 19:28:48 10° SSE
Cosmos 1602 Rocket 4.3 19:28:09 10° N 19:32:09 32° ENE 19:35:04 16° SE
Cosmos 2184 Rocket 3.9 19:27:20 10° S 19:33:33 70° E 19:39:46 10° NNE
Geosat 4.4 19:28:38 10° NNE 19:33:39 67° NW 19:38:38 10° SW
Helios 1A 3.1 19:30:32 10° SE 19:34:33 50° ENE 19:38:36 10° N
Cosmos 1975 3.8 19:31:17 10° SE 19:34:41 26° E 19:38:07 10° NNE
Cosmos 1515 3.8 19:31:56 10° N 19:35:46 55° ENE 19:39:33 10° SSE
Cosmos 1500 4.2 19:32:55 10° SE 19:36:00 24° E 19:39:05 10° NE
Cosmos 1626 Rocket 4.2 19:32:05 10° N 19:36:14 35° ENE 19:39:17 16° SE
Meteor 1-11 Rocket 4.3 19:36:09 10° SSW 19:42:00 66° WNW 19:47:58 10° N
Nadezhda 3 Rocket 3.9 19:36:53 10° N 19:43:03 69° ENE 19:49:14 10° SSE
Cosmos 841 Rocket 3.4 19:40:47 10° NNW 19:45:57 73° ENE 19:50:47 12° SSE
ATLAS CENTAUR R/B 3.4 19:43:58 10° NW 19:46:44 17° N 19:49:03 11° NE
Cosmos 540 Rocket 3.8 19:47:45 10° NNW 19:52:39 43° NE 19:55:05 26° ESE
Cosmos 2082 4.2 19:47:49 10° S 19:52:58 35° ESE 19:58:07 10° NE
Spot 1 3.9 19:50:18 10° SSE 19:54:26 81° ENE 19:58:47 10° NNW
Cosmos 1763 Rocket 3.5 19:49:30 10° NNW 19:54:40 85° WSW 19:59:52 10° SSE
Cosmos 405 Rocket 3.5 19:50:50 10° NNW 19:54:51 57° W 19:58:47 10° S
Meteor 1-5 Rocket 4.3 19:51:07 10° SSW 19:57:04 86° WNW 20:02:54 10° NNE
ARGOS 4.4 19:57:59 21° ENE 19:58:58 23° NE 20:03:04 10° N
Cosmos 1455 Rocket 3.1 19:56:12 10° S 20:00:28 55° E 20:04:44 10° NNE
Cosmos 332 Rocket 3.8 19:57:31 10° NNW 20:02:28 82° WSW 20:06:49 13° SSE
SPOT 5 4.1 20:01:56 24° ENE 20:02:42 25° NE 20:06:52 10° N
Cosmos 2154 Rocket 4.0 19:57:08 10° S 20:03:24 65° E 20:09:40 10° NNE
Cosmos 2237 Rocket 2.9 19:58:43 10° NW 20:04:17 56° WSW 20:09:50 10° S
Cosmos 2341 Rocket 4.1 19:59:23 10° SSE 20:05:32 53° E 20:11:44 10° NNE
H-2A R/B 3.6 20:02:18 10° S 20:05:58 51° W 20:09:42 10° NNW
SAR-Lupe-1 4.1 20:02:53 13° SSE 20:06:02 79° WSW 20:09:38 10° NNW
SAR-Lupe-4 3.9 20:03:42 10° S 20:07:15 67° WSW 20:10:51 10° NNW
Cosmos 1603 4.2 20:02:16 10° NNW 20:07:40 42° NE 20:09:45 31° E
Meteor 2-8 Rocket 4.3 20:02:16 10° N 20:08:21 72° ENE 20:14:25 10° SSE
H-2A R/B 3.7 20:09:24 19° ENE 20:09:48 19° NE 20:13:29 10° N
ALOS 3.7 20:05:53 10° SSW 20:10:15 39° W 20:14:39 10° NNW
CZ-2D R/B 3.8 20:07:08 10° S 20:10:54 59° WSW 20:14:43 10° NNW
Cosmos 371 Rocket 3.3 20:06:15 10° NNW 20:11:10 87° WSW 20:14:29 21° SSE
Cosmos 2297 Rocket 2.5 20:06:37 10° S 20:11:53 41° ESE 20:17:10 10° NE
Cosmos 1066 Rocket 4.1 20:06:26 10° NNW 20:12:08 87° ENE 20:17:39 10° SSE
CZ-4B DEB 4.4 20:11:02 30° SSE 20:12:42 87° ENE 20:16:18 10° NNW
Cosmos 2219 Rocket 3.9 20:08:09 10° NW 20:13:02 32° WSW 20:17:55 10° SSW
Cosmos 1441 Rocket 3.8 20:17:08 10° NNW 20:21:04 60° W 20:24:33 13° S
Cosmos 836 Rocket 4.4 20:16:18 10° NNW 20:21:38 87° ENE 20:24:25 29° SSE
SJ-11-01 4.2 20:24:40 29° SSE 20:27:05 82° ENE 20:31:52 10° NNW
Resurs 01 Rocket 3.3 20:23:38 10° SSW 20:27:37 33° W 20:31:37 10° NNW
H-2A R/B 4.0 20:29:53 16° NNE 20:29:53 16° NNE 20:31:25 10° NNE
Cosmos 2366 rocket 4.4 20:28:32 38° E 20:28:49 38° E 20:34:25 10° NNE
Cosmos 962 Rocket 4.3 20:23:49 10° S 20:29:57 75° E 20:36:05 10° NNE
Cosmos 2227 Rocket 2.1 20:27:02 10° SSW 20:32:40 71° ESE 20:38:20 10° NE
Cosmos 2219 4.0 20:28:31 10° SW 20:34:07 51° NW 20:39:43 10° NNE
Abrixas rocket 4.0 20:36:14 10° WSW 20:38:06 25° SW 20:38:06 25° SW
Meteor 1-21 4.1 20:34:07 10° NNW 20:39:52 79° ENE 20:42:10 38° SSE
SL-16 R/B 2.6 20:36:13 10° NW 20:41:50 62° WSW 20:44:57 27° S
GEOS 3 Rocket 4.0 20:42:38 44° SSE 20:42:38 44° SSE 20:47:00 10° SSW
USA 215 3.4 20:38:32 29° ENE 20:42:05 70° N 20:48:34 10° W
Gbstr 26 Del rocket 3.0 20:39:54 10° WSW 20:43:03 56° SW 20:43:03 56° SW
Cosmos 1538 Rocket 4.5 20:39:44 10° NNW 20:44:48 43° NE 20:44:52 43° NE
Cosmos 1943 3.7 20:39:29 10° NNW 20:44:52 41° NE 20:45:25 40° ENE
ERS-1 Rocket 2.8 20:44:59 55° SE 20:46:05 79° ENE 20:51:10 10° NNW
NOSS 3-4 (A) 4.4 20:39:46 10° NW 20:46:05 42° NNE 20:48:44 30° ENE
NOSS 3-4 (C) 4.4 20:39:53 10° NW 20:46:11 41° NNE 20:48:50 30° ENE
USA 186 3.7 20:47:52 23° WSW 20:48:12 23° W 20:50:29 10° NW
Meteor 1-12 Rocket 4.4 20:43:06 10° SSW 20:49:02 77° WNW 20:54:57 10° NNE
SPOT 1/Viking Rocket 4.3 20:50:58 37° NE 20:50:58 37° NE 20:55:09 10° N
Terra 3.7 20:52:26 18° NNE 20:52:26 18° NNE 20:54:25 10° N
Cosmos 2218 Rocket 3.9 20:49:19 45° SE 20:50:58 59° E 20:57:09 10° NNE
MetOp-A 4.1 20:51:45 60° E 20:52:10 62° ENE 20:57:28 10° N
Iridium 2 4.0 20:53:06 64° WNW 20:53:06 64° WNW 20:56:43 10° N
NOAA 11 4.2 20:53:21 57° E 20:53:36 58° ENE 20:58:58 10° N
ATLAS 2AS CENTAUR R/B 3.0 20:45:38 10° NW 20:53:51 87° NE 20:56:44 45° SE
Cosmos 1939 Rocket 3.2 20:54:17 57° SW 20:54:39 60° W 20:58:39 10° NNW
Cosmos 304 Rocket 3.6 20:50:27 10° NNW 20:55:17 81° ENE 20:55:19 80° ENE
Envisat 3.4 20:52:51 26° S 20:55:41 60° WSW 21:00:45 10° NNW
Helios 1B rocket 2.8 20:51:34 10° N 20:55:43 63° WNW 20:59:48 10° SSW
Aureole 2 Rocket 4.4 20:53:04 10° NW 20:55:47 23° WSW 20:56:11 22° WSW
YAOGAN 6 4.1 21:00:23 32° NNW 21:00:23 32° NNW 21:02:26 10° NNW
Cosmos 1842 4.3 20:58:20 10° N 21:00:56 39° N 21:00:56 39° N
SL-08 R/B 4.3 21:04:24 63° SE 21:05:01 66° E 21:11:12 10° NNE
Cosmos 1975 4.3 21:07:17 10° SW 21:11:04 37° WNW 21:14:54 10° N
SL-8 Rocket 3.9 21:06:43 11° S 21:12:47 88° WNW 21:19:10 10° N
Cosmos 1825 Rocket 4.2 21:13:42 10° NNW 21:17:11 53° NNW 21:17:11 53° NNW
ATLAS CENTAUR R/B 3.4 21:23:25 10° NW 21:25:21 21° NNW 21:25:21 21° NNW
Aureole 1 Rocket 4.2 21:22:18 10° NNW 21:29:33 57° NE 21:29:33 57° NE
Cosmos 2082 4.3 21:31:17 10° SW 21:36:54 55° NW 21:42:32 10° NNE
Cosmos 864 Rocket 4.4 21:38:18 79° WSW 21:38:35 82° W 21:44:48 10° N
ARGOS 3.4 21:39:29 65° NNW 21:39:29 65° NNW 21:44:06 10° NNW
SPOT 5 3.5 21:41:10 57° NW 21:41:10 57° NW 21:45:31 10° NNW
H-2A R/B 2.9 21:50:02 48° N 21:50:02 48° N 21:53:55 10° NNW
Cosmos 1603 4.4 21:46:28 10° NW 21:51:40 49° WSW 21:51:40 49° WSW
Cosmos 2297 Rocket 3.0 21:50:28 10° WSW 21:55:55 47° NW 22:01:25 10° NNE
H-2A R/B 4.4 22:06:59 20° NNW 22:06:59 20° NNW 22:08:23 10° NNW
Cosmos 2227 Rocket 3.8 22:12:09 10° WSW 22:17:13 32° NW 22:22:19 10° NNE
USA 215 3.5 22:25:52 63° NW 22:25:52 63° NW 22:31:25 10° WNW
Terra 4.0 22:31:18 22° NNW 22:31:18 22° NNW 22:32:59 10° NNW
Cosmos 1943 4.5 22:23:37 10° NW 22:27:15 37° WNW 22:27:15 37° WNW
NOSS 3-4 (A) 4.2 22:30:58 10° NW 22:36:10 56° NW 22:36:10 56° NW
NOSS 3-4 (C) 4.2 22:31:05 10° NW 22:36:17 56° NW 22:36:17 56° NW
ATLAS 2AS CENTAUR R/B 4.1 22:37:15 10° NW 22:44:11 33° WSW 22:44:11 33° WSW
Cosmos 2082 Rocket 4.2 22:44:33 10° NNW 22:47:38 21° N 22:47:38 21° N
